| time (UTC) | temp C | wind direction | speed KPH | gust KPH | rain 1hr cm | rain 24hr cm | rain mn cm | humidity % | barometer mb |
| 20260504120227 | 10 | 231 | 0.0 | 0.0 | 0.00 | 0.00 | 0.00 | 69 | 993.1 |
| 20260504110511 | -17 | 0.0 | 0.0 | 0.00 | 0.00 | 0.00 | 993.3 | ||
| 20260504100218 | -17 | 0.0 | 0.0 | 0.00 | 0.00 | 0.00 | 993.4 | ||
| 20260504081511 | -17 | 0.0 | 0.0 | 0.00 | 0.00 | 0.00 | 993.7 | ||
| 20260504081003 | -17 | 0.0 | 0.0 | 0.00 | 0.00 | 0.00 | 993.6 | ||
| 20260504080413 | 7 | 0.0 | 0.0 | 0.00 | 0.00 | 0.00 | 73 | 993.6 | |
| 20260504070237 | 6 | 231 | 0.0 | 0.0 | 0.00 | 0.00 | 0.00 | 74 | 993.7 |
| 20260504060211 | 6 | 231 | 0.0 | 0.0 | 0.00 | 0.00 | 0.00 | 76 | 994.1 |
| 20260504050705 | 6 | 231 | 0.0 | 0.0 | 0.00 | 0.00 | 0.00 | 69 | 994.3 |
| 20260504050207 | 6 | 231 | 0.0 | 0.0 | 0.00 | 0.00 | 0.00 | 70 | 994.3 |
| 20260504045203 | 6 | 231 | 0.0 | 0.0 | 0.00 | 0.00 | 0.00 | 70 | 994.4 |
| 20260504044706 | 6 | 232 | 0.0 | 0.0 | 0.00 | 0.00 | 0.00 | 69 | 994.4 |
| 20260504043702 | 6 | 231 | 0.0 | 0.0 | 0.00 | 0.00 | 0.00 | 67 | 994.5 |
| 20260504043202 | 7 | 231 | 0.0 | 0.0 | 0.00 | 0.00 | 0.00 | 66 | 994.5 |
| 20260504042703 | 7 | 231 | 0.0 | 0.0 | 0.00 | 0.00 | 0.00 | 68 | 994.4 |
| 20260504042202 | 7 | 232 | 0.0 | 0.0 | 0.00 | 0.00 | 0.00 | 67 | 994.4 |
| 20260504041701 | 7 | 232 | 0.0 | 0.0 | 0.00 | 0.00 | 0.00 | 67 | 994.4 |
| 20260504041202 | 7 | 231 | 0.0 | 0.0 | 0.00 | 0.00 | 0.00 | 66 | 994.4 |
| 20260504040201 | 7 | 231 | 0.0 | 0.0 | 0.00 | 0.00 | 0.00 | 66 | 994.4 |
| 20260504035701 | 7 | 231 | 0.0 | 0.0 | 0.00 | 0.00 | 0.00 | 65 | 994.3 |
| 20260504035202 | 7 | 232 | 0.0 | 0.0 | 0.00 | 0.00 | 0.00 | 64 | 994.3 |
| 20260504034702 | 7 | 232 | 0.0 | 0.0 | 0.00 | 0.00 | 0.00 | 63 | 994.2 |
| 20260504034201 | 7 | 232 | 0.0 | 0.0 | 0.00 | 0.00 | 0.00 | 64 | 994.1 |
| 20260504033201 | 7 | 231 | 0.0 | 0.0 | 0.00 | 0.00 | 0.00 | 63 | 994.2 |
| 20260504031703 | 8 | 232 | 0.0 | 0.0 | 0.00 | 0.00 | 0.00 | 64 | 994.1 |
| 20260504031203 | 8 | 232 | 0.0 | 0.0 | 0.00 | 0.00 | 0.00 | 64 | 994.1 |
| 20260504030703 | 8 | 231 | 0.0 | 0.0 | 0.00 | 0.00 | 0.00 | 65 | 994.1 |
| 20260504025658 | 8 | 232 | 0.0 | 0.0 | 0.00 | 0.00 | 0.00 | 65 | 994.1 |
| 20260504025152 | 8 | 231 | 0.0 | 0.0 | 0.00 | 0.00 | 0.00 | 65 | 994.0 |
| 20260504024646 | 8 | 232 | 0.0 | 0.0 | 0.00 | 0.00 | 0.00 | 64 | 994.0 |
| 20260504024140 | 8 | 232 | 0.0 | 0.0 | 0.00 | 0.00 | 0.00 | 63 | 993.9 |
| 20260504022621 | 9 | 232 | 0.0 | 0.0 | 0.00 | 0.00 | 0.00 | 60 | 993.8 |
| 20260504022116 | 9 | 231 | 0.0 | 0.0 | 0.00 | 0.00 | 0.00 | 59 | 993.7 |
| 20260504021609 | 9 | 231 | 0.0 | 0.0 | 0.00 | 0.00 | 0.00 | 58 | 993.7 |
| 20260504021106 | 9 | 232 | 0.0 | 0.0 | 0.00 | 0.00 | 0.00 | 55 | 993.6 |
| 20260504015606 | 10 | 231 | 0.0 | 0.0 | 0.00 | 0.00 | 0.00 | 54 | 993.6 |
| 20260504014105 | 10 | 232 | 0.0 | 0.0 | 0.00 | 0.00 | 0.00 | 52 | 993.5 |
| 20260504013604 | 10 | 232 | 0.0 | 0.0 | 0.00 | 0.00 | 0.00 | 52 | 993.5 |
| 20260504013104 | 10 | 231 | 0.0 | 0.0 | 0.00 | 0.00 | 0.00 | 53 | 993.5 |
| 20260504012602 | 11 | 231 | 0.0 | 0.0 | 0.00 | 0.00 | 0.00 | 52 | 993.5 |
| 20260504012101 | 11 | 232 | 0.0 | 0.0 | 0.00 | 0.00 | 0.00 | 50 | 993.4 |
| 20260504011601 | 11 | 231 | 0.0 | 0.0 | 0.00 | 0.00 | 0.00 | 47 | 993.3 |
| 20260504011102 | 11 | 231 | 0.0 | 0.0 | 0.00 | 0.00 | 0.00 | 47 | 993.3 |
| 20260504005603 | 11 | 232 | 0.0 | 0.0 | 0.00 | 0.00 | 0.00 | 46 | 993.3 |
| 20260504005057 | 12 | 232 | 0.0 | 0.0 | 0.00 | 0.00 | 0.00 | 45 | 993.2 |
| 20260504004052 | 12 | 232 | 0.0 | 0.0 | 0.00 | 0.00 | 0.00 | 44 | 993.2 |
| 20260504003551 | 12 | 232 | 0.0 | 0.0 | 0.00 | 0.00 | 0.00 | 44 | 993.2 |
| 20260504002552 | 13 | 232 | 0.0 | 0.0 | 0.00 | 0.00 | 0.00 | 40 | 993.2 |
| 20260504002050 | 13 | 232 | 0.0 | 0.0 | 0.00 | 0.00 | 0.00 | 40 | 993.1 |
| 20260504001550 | 13 | 232 | 0.0 | 0.0 | 0.00 | 0.00 | 0.00 | 39 | 993.2 |
| 20260504000548 | 14 | 231 | 0.0 | 0.0 | 0.00 | 0.00 | 0.00 | 37 | 993.1 |
| 20260504000048 | 14 | 232 | 0.0 | 0.0 | 0.00 | 0.00 | 0.00 | 37 | 993.1 |
| 20260503235549 | 14 | 232 | 0.0 | 0.0 | 0.00 | 0.00 | 0.00 | 36 | 993.0 |
| 20260503235047 | 15 | 231 | 0.0 | 0.0 | 0.00 | 0.00 | 0.00 | 35 | 992.9 |
| 20260503234548 | 15 | 231 | 0.0 | 0.0 | 0.00 | 0.00 | 0.00 | 35 | 992.8 |
| 20260503234048 | 15 | 231 | 0.0 | 0.0 | 0.00 | 0.00 | 0.00 | 34 | 992.9 |
| 20260503233549 | 15 | 231 | 0.0 | 0.0 | 0.00 | 0.00 | 0.00 | 33 | 992.9 |
| 20260503233049 | 15 | 231 | 0.0 | 0.0 | 0.00 | 0.00 | 0.00 | 33 | 992.9 |
| 20260503232547 | 15 | 231 | 0.0 | 0.0 | 0.00 | 0.00 | 0.00 | 32 | 992.8 |
| 20260503232049 | 15 | 232 | 0.0 | 0.0 | 0.00 | 0.00 | 0.00 | 33 | 992.7 |
| 20260503231549 | 16 | 231 | 0.0 | 0.0 | 0.00 | 0.00 | 0.00 | 32 | 992.7 |
| 20260503231049 | 16 | 231 | 0.0 | 0.0 | 0.00 | 0.00 | 0.00 | 32 | 992.7 |
| 20260503230549 | 16 | 231 | 0.0 | 0.0 | 0.00 | 0.00 | 0.00 | 33 | 992.7 |
| 20260503230048 | 16 | 231 | 0.0 | 0.0 | 0.00 | 0.00 | 0.00 | 31 | 992.7 |
| 20260503225548 | 16 | 231 | 0.0 | 1.6 | 0.00 | 0.00 | 0.00 | 30 | 992.7 |
| 20260503225049 | 16 | 231 | 0.0 | 1.6 | 0.00 | 0.00 | 0.00 | 31 | 992.6 |
| 20260503224549 | 16 | 231 | 0.0 | 1.6 | 0.00 | 0.00 | 0.00 | 31 | 992.6 |
| 20260503224047 | 16 | 231 | 0.0 | 0.0 | 0.00 | 0.00 | 0.00 | 32 | 992.5 |
| 20260503223548 | 16 | 231 | 0.0 | 0.0 | 0.00 | 0.00 | 0.00 | 31 | 992.5 |
| 20260503223049 | 17 | 231 | 0.0 | 0.0 | 0.00 | 0.00 | 0.00 | 30 | 992.5 |
| 20260503222544 | 17 | 238 | 0.0 | 1.6 | 0.00 | 0.00 | 0.00 | 31 | 992.6 |
| 20260503221544 | 17 | 237 | 0.0 | 1.6 | 0.00 | 0.00 | 0.00 | 30 | 992.7 |
| 20260503221043 | 17 | 237 | 0.0 | 1.6 | 0.00 | 0.00 | 0.00 | 31 | 992.8 |
| 20260503220542 | 17 | 237 | 0.0 | 0.0 | 0.00 | 0.00 | 0.00 | 32 | 992.8 |
| 20260503220039 | 17 | 233 | 0.0 | 0.0 | 0.00 | 0.00 | 0.00 | 30 | 992.8 |
| 20260503215539 | 17 | 233 | 0.0 | 1.6 | 0.00 | 0.00 | 0.00 | 32 | 992.7 |
| 20260503215039 | 17 | 233 | 0.0 | 1.6 | 0.00 | 0.00 | 0.00 | 30 | 992.7 |
| 20260503214541 | 17 | 241 | 0.0 | 1.6 | 0.00 | 0.00 | 0.00 | 31 | 992.7 |
| 20260503213537 | 17 | 241 | 0.0 | 1.6 | 0.00 | 0.00 | 0.00 | 31 | 992.8 |
| 20260503213039 | 17 | 241 | 0.0 | 1.6 | 0.00 | 0.00 | 0.00 | 31 | 992.8 |
| 20260503212533 | 17 | 241 | 0.0 | 1.6 | 0.00 | 0.00 | 0.00 | 30 | 992.8 |
| 20260503212027 | 17 | 236 | 0.0 | 1.6 | 0.00 | 0.00 | 0.00 | 30 | 992.8 |
| 20260503211522 | 17 | 236 | 0.0 | 1.6 | 0.00 | 0.00 | 0.00 | 29 | 992.8 |
| 20260503211016 | 17 | 186 | 0.0 | 0.0 | 0.00 | 0.00 | 0.00 | 29 | 992.8 |
| 20260503210004 | 17 | 171 | 0.0 | 3.2 | 0.00 | 0.00 | 0.00 | 29 | 992.8 |
| 20260503205456 | 17 | 172 | 0.0 | 1.6 | 0.00 | 0.00 | 0.00 | 30 | 992.8 |
| 20260503204950 | 17 | 172 | 0.0 | 1.6 | 0.00 | 0.00 | 0.00 | 31 | 992.8 |
| 20260503204446 | 17 | 257 | 0.0 | 1.6 | 0.00 | 0.00 | 0.00 | 30 | 992.7 |
| 20260503203938 | 17 | 257 | 0.0 | 1.6 | 0.00 | 0.00 | 0.00 | 32 | 992.8 |
| 20260503203433 | 17 | 257 | 0.0 | 1.6 | 0.00 | 0.00 | 0.00 | 32 | 992.9 |
| 20260503202927 | 17 | 265 | 0.0 | 1.6 | 0.00 | 0.00 | 0.00 | 32 | 992.8 |
| 20260503202420 | 17 | 250 | 0.0 | 4.8 | 0.00 | 0.00 | 0.00 | 30 | 993.0 |
| 20260503201410 | 17 | 239 | 0.0 | 1.6 | 0.00 | 0.00 | 0.00 | 29 | 992.9 |
| 20260503200902 | 17 | 240 | 0.0 | 3.2 | 0.00 | 0.00 | 0.00 | 29 | 993.1 |
| 20260503200357 | 17 | 240 | 0.0 | 3.2 | 0.00 | 0.00 | 0.00 | 32 | 993.1 |
| 20260503195851 | 17 | 242 | 0.0 | 0.0 | 0.00 | 0.00 | 0.00 | 31 | 993.2 |
| 20260503195344 | 17 | 243 | 0.0 | 1.6 | 0.00 | 0.00 | 0.00 | 31 | 993.2 |
| 20260503194338 | 17 | 234 | 0.0 | 1.6 | 0.00 | 0.00 | 0.00 | 30 | 993.5 |
| 20260503193833 | 17 | 172 | 0.0 | 0.0 | 0.00 | 0.00 | 0.00 | 29 | 993.7 |
| 20260503193332 | 17 | 171 | 0.0 | 0.0 | 0.00 | 0.00 | 0.00 | 31 | 993.6 |
| 20260503191803 | 17 | 251 | 0.0 | 1.6 | 0.00 | 0.00 | 0.00 | 30 | 993.9 |
| 20260503191257 | 17 | 249 | 0.0 | 1.6 | 0.00 | 0.00 | 0.00 | 32 | 994.0 |
| 20260503190750 | 17 | 247 | 0.0 | 1.6 | 0.00 | 0.00 | 0.00 | 31 | 994.1 |
| 20260503190245 | 17 | 238 | 0.0 | 3.2 | 0.00 | 0.00 | 0.00 | 31 | 994.1 |
| 20260503185739 | 17 | 237 | 0.0 | 3.2 | 0.00 | 0.00 | 0.00 | 30 | 994.1 |
| 20260503185232 | 17 | 241 | 0.0 | 3.2 | 0.00 | 0.00 | 0.00 | 29 | 994.1 |
| 20260503184727 | 17 | 243 | 0.0 | 3.2 | 0.00 | 0.00 | 0.00 | 30 | 994.2 |
| 20260503184221 | 17 | 245 | 0.0 | 1.6 | 0.00 | 0.00 | 0.00 | 32 | 994.3 |
| 20260503183715 | 17 | 245 | 0.0 | 1.6 | 0.00 | 0.00 | 0.00 | 32 | 994.4 |
| 20260503183209 | 16 | 245 | 0.0 | 1.6 | 0.00 | 0.00 | 0.00 | 33 | 994.4 |
| 20260503182703 | 16 | 245 | 0.0 | 1.6 | 0.00 | 0.00 | 0.00 | 33 | 994.5 |
| 20260503181651 | 16 | 226 | 0.0 | 4.8 | 0.00 | 0.00 | 0.00 | 32 | 994.4 |
| 20260503181145 | 16 | 255 | 0.0 | 1.6 | 0.00 | 0.00 | 0.00 | 34 | 994.4 |
| 20260503180640 | 16 | 255 | 0.0 | 1.6 | 0.00 | 0.00 | 0.00 | 32 | 994.6 |
| 20260503180132 | 16 | 235 | 0.0 | 0.0 | 0.00 | 0.00 | 0.00 | 34 | 994.6 |
| 20260503175627 | 16 | 235 | 0.0 | 1.6 | 0.00 | 0.00 | 0.00 | 35 | 994.7 |
| 20260503174614 | 16 | 235 | 0.0 | 1.6 | 0.00 | 0.00 | 0.00 | 36 | 994.7 |
| 20260503174109 | 15 | 235 | 0.0 | 1.6 | 0.00 | 0.00 | 0.00 | 33 | 994.8 |
| 20260503173604 | 15 | 236 | 0.0 | 1.6 | 0.00 | 0.00 | 0.00 | 34 | 995.0 |
| 20260503173057 | 15 | 234 | 0.0 | 4.8 | 0.00 | 0.00 | 0.00 | 35 | 995.0 |
| 20260503172551 | 15 | 262 | 0.0 | 4.8 | 0.00 | 0.00 | 0.00 | 37 | 995.0 |
| 20260503172044 | 15 | 172 | 0.0 | 4.8 | 0.00 | 0.00 | 0.00 | 36 | 995.0 |
| 20260503171540 | 15 | 238 | 0.0 | 1.6 | 0.00 | 0.00 | 0.00 | 37 | 995.0 |
| 20260503170527 | 14 | 255 | 0.0 | 3.2 | 0.00 | 0.00 | 0.00 | 36 | 995.0 |
| 20260503150953 | 11 | 239 | 0.0 | 4.8 | 0.00 | 0.00 | 0.00 | 46 | 996.3 |
| 20260503150453 | 11 | 222 | 0.0 | 4.8 | 0.00 | 0.00 | 0.00 | 45 | 996.3 |
| 20260503130446 | 8 | 240 | 0.0 | 1.6 | 0.00 | 0.00 | 0.00 | 60 | 996.7 |